Zurück zum Katalog

DELTA 1 DEB

AktivPO
NORAD 8970·DEBRIS·🇺🇸 United States

Gestartet Jan 22, 1975 von Vandenberg Space Force Base

Loading…

Nächste Überflüge (nächste 24 Stunden)

TLE

AktuellSource: Space-Track

Epoche: Sep 14, 2026, 13:52 UTC

1 08970U 75004BC  26257.57784410  .00001203  00000-0  31392-3 0  9995
2 08970  97.3202  11.9747 0099782 280.6403  78.3568 14.48062825632240

Verfolge DELTA 1 DEB in Echtzeit mit AllMySat

Download on the App Store